GW5961 Weather Reports


time (UTC)temp
F
wind
direction
speed
knots
gust
knots
rain 1hr
in
rain 24hr
in
rain mn
in
humidity
%
barometer
mb
20260507052324 51 282 0.9 3.5 0.00 0.00 0.00 93 1020.3
20260507051822 51 282 0.9 3.5 0.00 0.00 0.00 93 1020.3
20260507051319 51 282 0.9 3.5 0.00 0.00 0.00 93 1020.5
20260507050816 51 282 0.9 3.5 0.00 0.00 0.00 93 1020.4
20260507050312 51 282 0.9 3.5 0.00 0.00 0.00 93 1020.5
20260507045809 51 282 0.9 3.5 0.00 0.00 0.00 93 1020.6
20260507045307 51 282 0.9 3.5 0.00 0.00 0.00 93 1020.5
20260507044803 51 282 0.9 3.5 0.00 0.00 0.00 93 1020.4
20260507044259 51 282 0.9 3.5 0.00 0.00 0.00 93 1020.4
20260507043755 52 312 1.7 2.6 0.00 0.00 0.00 93 1020.5
20260507043252 52 312 1.7 2.6 0.00 0.00 0.00 93 1020.4
20260507042748 52 312 1.7 2.6 0.00 0.00 0.00 93 1020.3
20260507042243 52 312 1.7 2.6 0.00 0.00 0.00 93 1020.5
20260507041742 52 312 1.7 2.6 0.00 0.00 0.00 93 1020.3
20260507041238 52 312 1.7 2.6 0.00 0.00 0.00 93 1020.5
20260507040735 52 312 1.7 2.6 0.00 0.00 0.00 93 1020.2
20260507040231 53 177 1.7 3.5 0.00 0.00 0.00 92 1020.2
20260507035727 53 177 1.7 3.5 0.00 0.00 0.00 92 1020.2
20260507035222 53 177 1.7 3.5 0.00 0.00 0.00 92 1020.3
20260507034720 53 177 1.7 3.5 0.00 0.00 0.00 92 1020.2
20260507034217 52 325 2.6 3.5 0.00 0.00 0.00 91 1020.2
20260507033716 53 286 0.0 1.7 0.00 0.00 0.00 91 1020.0
20260507033213 53 286 0.0 1.7 0.00 0.00 0.00 91 1020.0
20260507032710 53 286 0.0 1.7 0.00 0.00 0.00 91 1020.0
20260507032206 53 286 0.0 1.7 0.00 0.00 0.00 91 1020.1
20260507031703 53 286 0.0 0.9 0.00 0.00 0.00 91 1019.9
20260507031159 54 265 0.0 2.6 0.00 0.00 0.00 90 1019.9
20260507030656 54 265 0.0 2.6 0.00 0.00 0.00 90 1019.8
20260507030154 54 232 1.7 1.7 0.00 0.00 0.00 90 1019.9
20260507025651 54 232 1.7 1.7 0.00 0.00 0.00 90 1019.8
20260507025148 54 232 1.7 1.7 0.00 0.00 0.00 90 1019.8
20260507024646 54 232 1.7 1.7 0.00 0.00 0.00 90 1019.9
20260507024143 54 232 1.7 1.7 0.00 0.00 0.00 90 1019.9
20260507023638 53 203 3.5 3.5 0.00 0.00 0.00 89 1019.9
20260507023136 54 270 0.9 2.6 0.00 0.00 0.00 90 1019.9
20260507022633 54 184 2.6 4.3 0.00 0.00 0.00 90 1019.9
20260507022128 54 184 2.6 4.3 0.00 0.00 0.00 90 1019.9
20260507021625 54 184 2.6 4.3 0.00 0.00 0.00 90 1019.9
20260507021120 54 352 0.0 2.6 0.00 0.00 0.00 91 1020.0
20260507020619 54 352 0.0 2.6 0.00 0.00 0.00 91 1019.7
20260507020114 54 352 0.0 2.6 0.00 0.00 0.00 91 1020.0
20260507015613 54 270 0.9 1.7 0.00 0.00 0.00 90 1020.0
20260507015110 54 270 0.9 1.7 0.00 0.00 0.00 90 1020.0
20260507014607 54 270 0.9 1.7 0.00 0.00 0.00 90 1020.0
20260507014103 54 270 0.9 1.7 0.00 0.00 0.00 90 1019.9
20260507013559 54 270 0.9 1.7 0.00 0.00 0.00 90 1019.8
20260507013057 54 270 0.9 1.7 0.00 0.00 0.00 90 1019.8
20260507012554 55 320 1.7 1.7 0.00 0.00 0.00 88 1019.6
20260507012049 55 320 1.7 1.7 0.00 0.00 0.00 88 1019.6
20260507011548 55 320 1.7 1.7 0.00 0.00 0.00 88 1019.9
20260507011044 55 320 1.7 1.7 0.00 0.00 0.00 88 1019.8
20260507010538 55 320 1.7 1.7 0.00 0.00 0.00 88 1019.9
20260507010035 55 320 1.7 1.7 0.00 0.00 0.00 88 1019.8
20260507005532 55 191 0.0 1.7 0.00 0.00 0.00 88 1019.7
20260507005028 55 270 0.0 1.7 0.00 0.00 0.00 87 1019.8
20260507004526 55 270 0.0 1.7 0.00 0.00 0.00 87 1019.8
20260507004023 55 270 0.0 1.7 0.00 0.00 0.00 87 1019.8
20260507003518 56 226 2.6 2.6 0.00 0.00 0.00 87 1019.8
20260507003014 56 226 2.6 2.6 0.00 0.00 0.00 87 1019.8
20260507002510 56 226 2.6 2.6 0.00 0.00 0.00 87 1019.7
20260507002007 56 226 2.6 2.6 0.00 0.00 0.00 87 1019.7
20260507001503 55 347 3.5 4.3 0.00 0.00 0.00 85 1019.7
20260507001001 55 347 3.5 4.3 0.00 0.00 0.00 85 1019.6
20260507000456 55 347 3.5 4.3 0.00 0.00 0.00 85 1019.7
20260506235952 55 347 3.5 4.3 0.00 0.00 0.00 85 1019.9
20260506235450 55 347 3.5 4.3 0.00 0.00 0.00 85 1019.8
20260506234945 55 347 3.5 4.3 0.00 0.00 0.00 85 1019.6
20260506234443 55 347 3.5 4.3 0.00 0.00 0.00 85 1019.6
20260506233940 55 347 3.5 4.3 0.00 0.00 0.00 85 1019.6
20260506233437 56 319 3.5 3.5 0.00 0.00 0.00 87 1019.8
20260506232933 56 250 1.7 1.7 0.00 0.00 0.00 87 1019.5
20260506232430 56 250 1.7 1.7 0.00 0.00 0.00 87 1019.5
20260506231925 56 250 1.7 1.7 0.00 0.00 0.00 87 1019.7
20260506231423 56 250 1.7 1.7 0.00 0.00 0.00 87 1019.7
20260506230920 56 250 1.7 1.7 0.00 0.00 0.00 87 1019.8
20260506230417 56 250 1.7 1.7 0.00 0.00 0.00 87 1019.8
20260506225913 55 278 0.0 3.5 0.00 0.00 0.00 86 1019.9
20260506225411 55 84 1.7 4.3 0.00 0.00 0.00 86 1019.9
20260506224907 56 250 1.7 1.7 0.00 0.00 0.00 86 1019.9
20260506224405 56 294 0.9 1.7 0.00 0.00 0.00 86 1020.0
20260506223901 56 294 0.9 1.7 0.00 0.00 0.00 86 1019.9
20260506223356 57 250 2.6 2.6 0.00 0.00 0.00 83 1020.0
20260506222854 57 250 2.6 2.6 0.00 0.00 0.00 83 1020.0
20260506222349 57 250 2.6 2.6 0.00 0.00 0.00 83 1019.9
20260506221847 57 250 2.6 2.6 0.00 0.00 0.00 83 1019.9
20260506221344 57 250 2.6 2.6 0.00 0.00 0.00 83 1020.0
20260506220842 57 250 2.6 2.6 0.00 0.00 0.00 83 1020.0
20260506220337 57 250 2.6 2.6 0.00 0.00 0.00 83 1019.9
20260506215834 56 318 2.6 6.1 0.00 0.00 0.00 82 1019.9
20260506215330 56 318 2.6 6.1 0.00 0.00 0.00 82 1019.8
20260506214826 56 318 2.6 6.1 0.00 0.00 0.00 82 1020.1
20260506214323 56 318 2.6 6.1 0.00 0.00 0.00 82 1020.1
20260506213821 56 318 2.6 6.1 0.00 0.00 0.00 82 1019.8
20260506213318 56 318 2.6 6.1 0.00 0.00 0.00 82 1020.0
20260506212816 56 318 2.6 6.1 0.00 0.00 0.00 82 1019.8
20260506212311 56 318 2.6 6.1 0.00 0.00 0.00 82 1020.0
20260506211806 56 318 2.6 6.1 0.00 0.00 0.00 82 1019.9
20260506211303 56 318 2.6 6.1 0.00 0.00 0.00 82 1019.9
20260506210800 57 354 0.0 5.2 0.00 0.00 0.00 81 1019.9
20260506210256 57 0 0.0 5.2 0.00 0.00 0.00 81 1019.8
20260506205754 57 180 1.7 6.1 0.00 0.00 0.00 80 1019.9
20260506205249 57 180 1.7 6.1 0.00 0.00 0.00 80 1019.8
20260506204746 57 180 1.7 6.1 0.00 0.00 0.00 80 1019.8
20260506204244 57 180 1.7 6.1 0.00 0.00 0.00 80 1019.7
20260506203742 57 180 1.7 6.1 0.00 0.00 0.00 80 1019.9
20260506203239 57 180 1.7 6.1 0.00 0.00 0.00 80 1019.9
20260506202736 57 180 1.7 6.1 0.00 0.00 0.00 80 1019.9
20260506202232 57 180 1.7 6.1 0.00 0.00 0.00 80 1019.8
20260506201729 58 296 2.6 2.6 0.00 0.00 0.00 79 1019.8
20260506201226 57 127 1.7 3.5 0.00 0.00 0.00 81 1019.7
20260506200723 57 127 1.7 3.5 0.00 0.00 0.00 81 1019.8
20260506200220 57 127 1.7 3.5 0.00 0.00 0.00 81 1019.8
20260506195716 57 207 2.6 2.6 0.00 0.00 0.00 81 1019.7
20260506195213 56 233 1.7 3.5 0.00 0.00 0.00 84 1019.7
20260506194710 56 233 1.7 3.5 0.00 0.00 0.00 84 1019.7
20260506194206 56 233 1.7 3.5 0.00 0.00 0.00 84 1019.7
20260506193704 56 248 1.7 7.0 0.00 0.00 0.00 83 1019.6
20260506193201 54 275 1.7 4.3 0.00 0.00 0.00 86 1019.7
20260506192657 54 275 1.7 4.3 0.00 0.00 0.00 86 1019.6
20260506192154 54 275 1.7 4.3 0.00 0.00 0.00 86 1019.6
20260506191651 54 198 1.7 2.6 0.00 0.00 0.00 86 1019.7
20260506191147 53 177 5.2 6.1 0.00 0.00 0.00 87 1019.7
20260506190644 53 177 5.2 6.1 0.00 0.00 0.00 87 1019.8
20260506190141 53 177 5.2 6.1 0.00 0.00 0.00 87 1019.8
20260506185638 53 177 5.2 6.1 0.00 0.00 0.00 87 1019.8
20260506185134 53 174 0.9 7.0 0.00 0.00 0.00 86 1019.7
20260506184632 53 174 0.9 7.0 0.00 0.00 0.00 86 1019.7
20260506184129 53 174 0.9 7.0 0.00 0.00 0.00 86 1019.5
20260506183626 53 176 1.7 4.3 0.00 0.00 0.00 87 1019.3
20260506183121 54 299 0.0 3.5 0.00 0.00 0.00 88 1019.6
20260506182619 53 243 0.9 3.5 0.00 0.00 0.00 87 1019.5
20260506182116 53 322 1.7 1.7 0.00 0.00 0.00 87 1019.4
20260506181614 53 322 1.7 1.7 0.00 0.00 0.00 87 1019.3
20260506181111 53 322 1.7 1.7 0.00 0.00 0.00 87 1019.5
20260506180608 53 322 1.7 1.7 0.00 0.00 0.00 87 1019.4
20260506180104 53 322 1.7 1.7 0.00 0.00 0.00 87 1019.5
20260506175600 53 322 1.7 1.7 0.00 0.00 0.00 87 1019.4
20260506175056 53 322 1.7 1.7 0.00 0.00 0.00 87 1019.3
20260506174556 53 322 1.7 1.7 0.00 0.00 0.00 87 1019.4
20260506174051 53 322 1.7 1.7 0.00 0.00 0.00 87 1019.4
20260506173549 53 345 5.2 5.2 0.00 0.00 0.00 88 1019.0
20260506173046 53 225 2.6 4.3 0.00 0.00 0.00 87 1019.2
20260506172543 53 225 2.6 4.3 0.00 0.00 0.00 87 1019.3
20260506172039 53 301 2.6 2.6 0.00 0.00 0.00 88 1019.2
20260506171537 53 321 1.7 2.6 0.00 0.00 0.00 87 1019.2
20260506171034 53 321 1.7 2.6 0.00 0.00 0.00 87 1019.2
20260506170532 53 321 1.7 2.6 0.00 0.00 0.00 87 1019.3
20260506170029 53 321 1.7 2.6 0.00 0.00 0.00 87 1019.0
20260506165528 53 321 1.7 2.6 0.00 0.00 0.00 87 1019.0
20260506165023 53 321 1.7 2.6 0.00 0.00 0.00 87 1019.0
20260506164520 53 169 2.6 2.6 0.00 0.00 0.00 87 1018.9
20260506164018 53 169 2.6 2.6 0.00 0.00 0.00 87 1018.9
20260506163514 53 169 2.6 2.6 0.00 0.00 0.00 87 1018.8
20260506163010 53 169 2.6 2.6 0.00 0.00 0.00 87 1019.0
20260506162506 53 169 2.6 2.6 0.00 0.00 0.00 87 1019.0
20260506162003 53 169 2.6 2.6 0.00 0.00 0.00 87 1018.9
20260506161501 53 203 0.0 3.5 0.00 0.00 0.00 88 1019.0
20260506160958 51 356 0.0 2.6 0.00 0.00 0.00 92 1018.7
20260506160455 51 356 0.0 2.6 0.00 0.00 0.00 92 1018.7
20260506155952 51 356 0.0 2.6 0.00 0.00 0.00 92 1018.7
20260506155450 51 356 0.0 2.6 0.00 0.00 0.00 92 1018.8
20260506153616 51 356 0.0 2.6 0.00 0.00 0.00 92 1019.1
20260506153114 51 356 0.0 2.6 0.00 0.00 0.00 92 1019.1
20260506152611 51 356 0.0 2.6 0.00 0.00 0.00 92 1019.0
20260506152109 51 261 0.0 0.0 0.00 0.00 0.00 94 1019.1
20260506151607 51 261 0.0 0.0 0.00 0.00 0.00 94 1018.9
20260506151103 51 261 0.0 0.0 0.00 0.00 0.00 94 1018.9
20260506150600 51 261 0.0 0.0 0.00 0.00 0.00 94 1018.7
20260506150057 51 261 0.0 0.0 0.00 0.00 0.00 94 1018.6
20260506145554 51 261 0.0 0.0 0.00 0.00 0.00 94 1018.5
20260506145051 51 261 0.0 0.0 0.00 0.00 0.00 94 1018.5
20260506144547 51 286 0.0 0.0 0.00 0.00 0.00 94 1018.6
20260506144045 51 270 1.7 1.7 0.00 0.00 0.00 94 1018.5
20260506143542 51 221 3.5 3.5 0.00 0.00 0.00 94 1018.3
20260506143041 50 206 0.0 0.0 0.00 0.00 0.00 95 1018.3
20260506142538 50 206 0.0 0.0 0.00 0.00 0.00 95 1018.4
20260506142036 50 206 0.0 0.0 0.00 0.00 0.00 95 1018.3
20260506141533 50 206 0.0 0.0 0.00 0.00 0.00 95 1018.3
20260506141032 50 206 0.0 0.0 0.00 0.00 0.00 95 1018.1
20260506140529 50 206 0.0 0.0 0.00 0.00 0.00 95 1018.2
20260506140026 50 206 0.0 0.0 0.00 0.00 0.00 95 1018.4
20260506135523 50 206 0.0 0.0 0.00 0.00 0.00 95 1018.1
20260506135019 50 206 0.0 0.0 0.00 0.00 0.00 95 1018.0
20260506134515 50 206 0.0 0.0 0.00 0.00 0.00 95 1018.1
20260506134012 50 279 0.0 0.0 0.00 0.00 0.00 95 1018.0
20260506133509 50 279 0.0 0.0 0.00 0.00 0.00 95 1017.9
20260506133006 50 279 0.0 0.0 0.00 0.00 0.00 95 1018.0
20260506132503 50 283 0.9 0.9 0.00 0.00 0.00 96 1017.9
20260506132000 50 283 0.9 0.9 0.00 0.00 0.00 96 1017.9
20260506131457 50 262 0.0 0.9 0.00 0.00 0.00 95 1017.9
20260506130954 50 262 0.0 0.9 0.00 0.00 0.00 95 1017.9
20260506130450 50 262 0.0 0.9 0.00 0.00 0.00 95 1017.7
20260506125948 50 262 0.0 0.9 0.00 0.00 0.00 95 1017.9
20260506125446 50 262 0.0 0.9 0.00 0.00 0.00 95 1017.7
20260506124944 50 262 0.0 0.9 0.00 0.00 0.00 95 1017.7
20260506124441 50 262 0.0 0.9 0.00 0.00 0.00 95 1017.8
20260506123939 50 262 0.0 0.9 0.00 0.00 0.00 95 1017.7
20260506123437 51 337 0.0 0.9 0.00 0.00 0.00 95 1017.8
20260506122934 51 337 0.0 0.9 0.00 0.00 0.00 95 1017.7
20260506122431 51 337 0.0 0.9 0.00 0.00 0.00 95 1017.9
20260506121929 51 337 0.0 0.9 0.00 0.00 0.00 95 1017.7
20260506121426 51 337 0.0 0.9 0.00 0.00 0.00 95 1017.7
20260506120923 51 337 0.0 0.9 0.00 0.00 0.00 95 1018.1
20260506120420 51 337 0.0 0.9 0.00 0.00 0.00 95 1018.0
20260506115917 51 337 0.0 0.9 0.00 0.00 0.00 95 1017.8
20260506115415 51 337 0.0 0.9 0.00 0.00 0.00 95 1017.8
20260506114914 51 337 0.0 0.9 0.00 0.00 0.00 95 1017.7
20260506114411 51 278 0.9 1.7 0.00 0.00 0.00 95 1017.7
20260506113910 51 322 0.0 1.7 0.00 0.00 0.00 95 1017.7
20260506113407 51 322 0.0 1.7 0.00 0.00 0.00 95 1017.5
20260506112903 51 322 0.0 1.7 0.00 0.00 0.00 95 1017.5
20260506112400 51 322 0.0 1.7 0.00 0.00 0.00 95 1017.6
20260506111857 51 303 0.0 1.7 0.00 0.00 0.00 95 1017.4
20260506111356 51 303 0.0 1.7 0.00 0.00 0.00 95 1017.4
20260506110853 51 303 0.0 1.7 0.00 0.00 0.00 95 1017.3
20260506110350 51 328 0.0 0.9 0.00 0.00 0.00 95 1017.1
20260506105847 51 291 0.9 0.9 0.00 0.00 0.00 95 1017.4
20260506105343 51 291 0.9 0.9 0.00 0.00 0.00 95 1017.2
20260506104841 51 291 0.9 0.9 0.00 0.00 0.00 95 1017.1
20260506104338 51 291 0.9 0.9 0.00 0.00 0.00 95 1017.1
20260506103836 51 291 0.9 0.9 0.00 0.00 0.00 95 1017.2
20260506103333 51 291 0.9 0.9 0.00 0.00 0.00 95 1017.1
20260506102830 51 291 0.9 0.9 0.00 0.00 0.00 95 1016.9
20260506102328 51 291 0.9 0.9 0.00 0.00 0.00 95 1017.0
20260506101825 51 305 1.7 2.6 0.00 0.00 0.00 95 1016.5
20260506101321 51 305 1.7 2.6 0.00 0.00 0.00 95 1016.9
20260506100819 51 320 0.0 1.7 0.00 0.00 0.00 95 1016.6
20260506100317 51 320 0.0 1.7 0.00 0.00 0.00 95 1016.7
20260506095815 51 300 0.0 0.9 0.00 0.00 0.00 95 1016.9
20260506095312 51 300 0.0 0.9 0.00 0.00 0.00 95 1016.7
20260506094809 51 297 0.9 1.7 0.00 0.00 0.00 95 1016.9
20260506094308 51 309 1.7 1.7 0.00 0.00 0.00 95 1016.6
20260506093805 51 276 0.9 0.9 0.00 0.00 0.00 95 1016.7
20260506093302 51 315 1.7 1.7 0.00 0.00 0.00 95 1016.8
20260506092800 51 304 0.0 1.7 0.00 0.00 0.00 95 1016.6
20260506092258 51 304 0.0 1.7 0.00 0.00 0.00 95 1016.7
20260506091755 51 283 0.0 0.9 0.00 0.00 0.00 95 1016.7
20260506091252 51 283 0.0 0.9 0.00 0.00 0.00 95 1016.7
20260506090750 51 283 0.0 0.9 0.00 0.00 0.00 95 1016.7
20260506090247 51 286 0.0 0.9 0.00 0.00 0.00 95 1016.7
20260506085743 51 294 0.0 0.0 0.00 0.00 0.00 96 1016.4
20260506085240 51 294 0.0 0.0 0.00 0.00 0.00 96 1016.5
20260506084736 51 294 0.0 0.0 0.00 0.00 0.00 96 1016.6
20260506084233 51 254 0.0 0.9 0.00 0.00 0.00 96 1016.7
20260506083730 51 340 0.0 0.0 0.00 0.00 0.00 97 1016.4
20260506083227 51 340 0.0 0.0 0.00 0.00 0.00 97 1016.4
20260506082725 51 340 0.0 0.0 0.00 0.00 0.00 97 1016.5
20260506082220 51 340 0.0 0.0 0.00 0.00 0.00 97 1016.6
20260506081718 51 342 0.9 1.7 0.00 0.00 0.00 98 1016.4
20260506081215 51 342 0.9 1.7 0.00 0.00 0.00 98 1016.4
20260506080713 51 342 0.9 1.7 0.00 0.00 0.00 98 1016.4
20260506080209 51 342 0.9 1.7 0.00 0.00 0.00 98 1016.4
20260506073154 50 279 0.0 0.0 0.00 0.00 0.00 99 1015.9
20260506072650 50 279 0.0 0.0 0.00 0.00 0.00 99 1015.8
20260506072148 50 279 0.0 0.0 0.00 0.00 0.00 99 1016.0
20260506071645 50 279 0.0 0.0 0.00 0.00 0.00 99 1016.0
20260506071143 50 261 0.0 0.0 0.00 0.00 0.00 98 1015.9
20260506070640 50 261 0.0 0.0 0.00 0.00 0.00 98 1015.8
20260506070137 50 261 0.0 0.0 0.00 0.00 0.00 98 1015.7
20260506062451 50 261 0.0 0.0 0.00 0.00 0.00 98 1015.6
20260506061947 50 261 0.0 0.0 0.00 0.00 0.00 98 1015.6
20260506061443 49 260 0.0 0.0 0.00 0.00 0.00 95 1015.6
20260506060942 49 260 0.0 0.0 0.00 0.00 0.00 94 1015.5
20260506060440 49 260 0.0 0.0 0.00 0.00 0.00 94 1015.5